GW5255 Weather Reports


time (UTC)temp
C
wind
direction
speed
KPH
gust
KPH
rain 1hr
cm
rain 24hr
cm
rain mn
cm
humidity
%
barometer
mb
20260505073038 12 131 0.0 1.6 0.00 0.00 0.00 86 1012.4
20260505072532 12 168 0.0 0.0 0.00 0.00 0.00 86 1012.6
20260505072029 12 99 1.6 1.6 0.00 0.00 0.00 87 1012.4
20260505071524 13 66 0.0 3.2 0.00 0.00 0.00 87 1012.1
20260505071023 12 128 0.0 0.0 0.00 0.00 0.00 90 1012.2
20260505070520 11 237 1.6 3.2 0.00 0.00 0.00 92 1012.2
20260505070016 11 47 1.6 3.2 0.00 0.00 0.00 91 1012.3
20260505065512 11 80 0.0 1.6 0.00 0.00 0.00 91 1012.4
20260505065008 11 221 1.6 3.2 0.00 0.00 0.00 90 1012.3
20260505064505 11 61 0.0 3.2 0.00 0.00 0.00 91 1012.4
20260505064004 11 70 1.6 1.6 0.00 0.00 0.00 92 1012.4
20260505063500 11 76 1.6 1.6 0.00 0.00 0.00 92 1012.5
20260505062956 11 91 0.0 1.6 0.00 0.00 0.00 91 1012.6
20260505062453 11 79 0.0 1.6 0.00 0.00 0.00 93 1012.7
20260505061950 11 145 0.0 1.6 0.00 0.00 0.00 92 1012.5
20260505061448 11 68 0.0 0.0 0.00 0.00 0.00 93 1012.4
20260505060946 11 84 1.6 4.8 0.00 0.00 0.00 94 1012.6
20260505060443 11 68 0.0 0.0 0.00 0.00 0.00 93 1012.6
20260505055939 11 93 0.0 1.6 0.00 0.00 0.00 93 1012.7
20260505055435 11 71 0.0 0.0 0.00 0.00 0.00 92 1012.7
20260505054932 12 68 0.0 1.6 0.00 0.00 0.00 90 1012.8
20260505054429 11 72 0.0 1.6 0.00 0.00 0.00 93 1012.6
20260505053927 12 68 0.0 3.2 0.00 0.00 0.00 91 1012.6
20260505053424 11 95 0.0 0.0 0.00 0.00 0.00 92 1012.8
20260505052921 11 68 0.0 3.2 0.00 0.00 0.00 92 1012.4
20260505052418 12 96 3.2 3.2 0.00 0.00 0.00 92 1012.4
20260505051915 12 76 0.0 1.6 0.00 0.00 0.00 88 1012.6
20260505051412 12 88 1.6 3.2 0.00 0.00 0.00 90 1012.5
20260505050910 12 74 0.0 1.6 0.00 0.00 0.00 93 1012.4
20260505050408 12 107 0.0 0.0 0.00 0.00 0.00 93 1012.4
20260505041336 12 76 1.6 3.2 0.00 0.00 0.00 90 1011.9
20260505040833 12 90 1.6 3.2 0.00 0.00 0.00 91 1011.9
20260505040330 12 80 0.0 3.2 0.00 0.00 0.00 90 1011.8
20260505035827 13 97 0.0 0.0 0.00 0.00 0.00 90 1011.6
20260505035322 13 85 1.6 1.6 0.00 0.00 0.00 91 1011.6
20260505034820 13 86 0.0 0.0 0.00 0.00 0.00 90 1011.6
20260505034316 13 86 0.0 0.0 0.00 0.00 0.00 90 1011.5
20260505033814 13 80 0.0 0.0 0.00 0.00 0.00 90 1011.6
20260505033310 13 82 0.0 0.0 0.00 0.00 0.00 90 1011.5
20260505032809 13 82 0.0 0.0 0.00 0.00 0.00 91 1011.7
20260505032305 13 83 0.0 0.0 0.00 0.00 0.00 90 1011.5
20260505031802 13 85 0.0 0.0 0.00 0.00 0.00 87 1011.6
20260505031258 13 84 1.6 3.2 0.00 0.00 0.00 88 1011.5
20260505030757 13 90 0.0 1.6 0.00 0.00 0.00 85 1011.6
20260505030252 13 111 0.0 0.0 0.00 0.00 0.00 85 1011.5
20260505025747 14 92 0.0 0.0 0.00 0.00 0.00 87 1011.5
20260505025246 14 92 0.0 0.0 0.00 0.00 0.00 83 1011.4
20260505024743 13 92 0.0 0.0 0.00 0.00 0.00 85 1011.5
20260505024241 13 92 0.0 0.0 0.00 0.00 0.00 85 1011.4
20260505023738 14 92 0.0 0.0 0.00 0.00 0.00 85 1011.6
20260505023235 14 92 0.0 0.0 0.00 0.00 0.00 85 1011.3
20260505022732 14 92 0.0 0.0 0.00 0.00 0.00 85 1011.5
20260505022229 14 92 0.0 0.0 0.00 0.00 0.00 85 1011.4
20260505021726 14 92 0.0 0.0 0.00 0.00 0.00 84 1011.3
20260505021223 14 92 0.0 0.0 0.00 0.00 0.00 85 1011.4
20260505020718 14 92 0.0 0.0 0.00 0.00 0.00 84 1011.4
20260505020214 15 92 0.0 0.0 0.00 0.00 0.00 84 1011.3
20260505015712 15 92 0.0 0.0 0.00 0.00 0.00 82 1011.1
20260505015208 15 92 0.0 0.0 0.00 0.00 0.00 82 1011.1
20260505014705 15 92 0.0 0.0 0.00 0.00 0.00 80 1011.2
20260505014203 15 92 0.0 0.0 0.00 0.00 0.00 80 1011.2
20260505013659 16 92 1.6 1.6 0.00 0.00 0.00 80 1011.2
20260505013157 16 92 0.0 0.0 0.00 0.00 0.00 78 1011.3
20260505012655 16 92 0.0 0.0 0.00 0.00 0.00 78 1011.1
20260505012152 16 92 0.0 1.6 0.00 0.00 0.00 76 1011.2
20260505011652 16 99 0.0 0.0 0.00 0.00 0.00 74 1011.0
20260505011150 17 99 0.0 0.0 0.00 0.00 0.00 75 1011.1
20260505010645 17 99 0.0 0.0 0.00 0.00 0.00 73 1011.0
20260505010142 17 109 0.0 0.0 0.00 0.00 0.00 72 1011.0
20260505005638 17 113 0.0 0.0 0.00 0.00 0.00 70 1011.2
20260505005135 17 114 0.0 0.0 0.00 0.00 0.00 70 1011.0
20260505004632 18 114 0.0 0.0 0.00 0.00 0.00 70 1011.0
20260505004129 18 113 0.0 0.0 0.00 0.00 0.00 67 1010.8
20260505003626 18 114 0.0 0.0 0.00 0.00 0.00 67 1010.9
20260505003123 18 115 0.0 0.0 0.00 0.00 0.00 66 1010.7
20260505002619 19 207 1.6 1.6 0.00 0.00 0.00 68 1011.0
20260505002118 19 180 0.0 0.0 0.00 0.00 0.00 67 1011.2
20260505001614 19 153 0.0 1.6 0.00 0.00 0.00 65 1011.0
20260505001112 20 163 1.6 3.2 0.00 0.00 0.00 64 1011.0
20260505000609 20 141 0.0 0.0 0.00 0.00 0.00 64 1011.0
20260505000107 20 142 0.0 1.6 0.00 0.00 0.00 61 1011.1
20260504235603 20 205 0.0 0.0 0.00 0.00 0.00 62 1011.2
20260504235059 20 93 0.0 4.8 0.00 0.00 0.00 63 1011.1
20260504234557 20 240 0.0 1.6 0.00 0.00 0.00 66 1010.9
20260504234054 20 156 0.0 3.2 0.00 0.00 0.00 59 1010.9
20260504233549 21 191 0.0 1.6 0.00 0.00 0.00 65 1011.0
20260504233046 21 105 0.0 0.0 0.00 0.00 0.00 61 1011.0
20260504232543 21 92 0.0 1.6 0.00 0.00 0.00 63 1011.1
20260504232041 21 152 3.2 3.2 0.00 0.00 0.00 58 1010.8
20260504231537 22 206 4.8 4.8 0.00 0.00 0.00 59 1010.9
20260504231033 23 151 0.0 4.8 0.00 0.00 0.00 57 1010.9
20260504230530 23 61 1.6 3.2 0.00 0.00 0.00 55 1010.7
20260504230029 23 71 0.0 3.2 0.00 0.00 0.00 51 1010.9
20260504225525 23 160 0.0 4.8 0.00 0.00 0.00 56 1011.0
20260504225022 24 211 1.6 3.2 0.00 0.00 0.00 54 1010.9
20260504224519 24 27 1.6 3.2 0.00 0.00 0.00 52 1010.9
20260504224016 24 226 1.6 3.2 0.00 0.00 0.00 58 1011.1
20260504223513 23 185 3.2 4.8 0.00 0.00 0.00 57 1011.1
20260504223009 23 176 1.6 1.6 0.00 0.00 0.00 58 1011.2
20260504222506 24 207 3.2 3.2 0.00 0.00 0.00 55 1011.2
20260504222003 24 349 0.0 3.2 0.00 0.00 0.00 48 1011.1
20260504221500 23 24 0.0 4.8 0.00 0.00 0.00 54 1011.3
20260504220957 23 292 3.2 6.4 0.00 0.00 0.00 53 1011.1
20260504220453 24 208 1.6 3.2 0.00 0.00 0.00 54 1011.2
20260504215950 24 59 3.2 4.8 0.00 0.00 0.00 47 1011.3
20260504215447 24 91 1.6 9.7 0.00 0.00 0.00 50 1011.3
20260504214944 25 48 3.2 4.8 0.00 0.00 0.00 47 1011.1
20260504214440 25 28 6.4 9.7 0.00 0.00 0.00 48 1011.2
20260504213937 25 46 4.8 6.4 0.00 0.00 0.00 45 1011.3
20260504213433 25 39 1.6 9.7 0.00 0.00 0.00 47 1011.5
20260504212931 24 41 3.2 12.9 0.00 0.00 0.00 46 1011.4
20260504212426 25 27 4.8 6.4 0.00 0.00 0.00 45 1011.4
20260504211924 25 98 6.4 12.9 0.00 0.00 0.00 46 1011.4
20260504211420 25 65 8.0 12.9 0.00 0.00 0.00 48 1011.2
20260504210918 25 122 0.0 4.8 0.00 0.00 0.00 52 1011.3
20260504210414 24 14 0.0 1.6 0.00 0.00 0.00 49 1011.5
20260504205912 23 1 8.0 9.7 0.00 0.00 0.00 50 1011.4
20260504205409 25 252 4.8 6.4 0.00 0.00 0.00 50 1011.6
20260504204907 25 58 1.6 3.2 0.00 0.00 0.00 50 1011.7
20260504204405 24 62 4.8 9.7 0.00 0.00 0.00 51 1011.7
20260504203905 24 57 6.4 6.4 0.00 0.00 0.00 52 1011.6
20260504203401 23 58 1.6 6.4 0.00 0.00 0.00 54 1011.6
20260504202857 23 24 4.8 6.4 0.00 0.00 0.00 54 1011.8
20260504202354 23 27 9.7 12.9 0.00 0.00 0.00 52 1012.0
20260504201850 23 43 3.2 6.4 0.00 0.00 0.00 55 1011.9
20260504201348 23 36 11.3 14.5 0.00 0.00 0.00 52 1012.0
20260504200845 23 26 6.4 9.7 0.00 0.00 0.00 54 1012.0
20260504200342 23 33 6.4 9.7 0.00 0.00 0.00 54 1012.1
20260504195838 23 4 9.7 12.9 0.00 0.00 0.00 51 1012.2
20260504195334 23 77 1.6 4.8 0.00 0.00 0.00 54 1012.5
20260504194831 22 299 3.2 4.8 0.00 0.00 0.00 53 1012.4
20260504194327 22 319 6.4 6.4 0.00 0.00 0.00 54 1012.7
20260504193823 22 13 3.2 12.9 0.00 0.00 0.00 54 1012.6
20260504193321 22 36 6.4 9.7 0.00 0.00 0.00 58 1012.6
20260504192819 22 31 3.2 4.8 0.00 0.00 0.00 56 1012.6
20260504192317 21 55 4.8 9.7 0.00 0.00 0.00 56 1012.7
20260504191815 21 80 3.2 6.4 0.00 0.00 0.00 58 1012.9
20260504191312 21 347 6.4 14.5 0.00 0.00 0.00 58 1012.9
20260504190808 21 12 1.6 9.7 0.00 0.00 0.00 62 1013.2
20260504190304 21 61 4.8 11.3 0.00 0.00 0.00 65 1013.3
20260504185800 20 34 6.4 9.7 0.00 0.00 0.00 63 1013.1
20260504185258 19 60 4.8 6.4 0.00 0.00 0.00 69 1013.7
20260504184754 18 63 3.2 6.4 0.00 0.00 0.00 65 1013.9
20260504184249 18 124 3.2 3.2 0.00 0.00 0.00 66 1014.1
20260504183745 18 16 0.0 3.2 0.00 0.00 0.00 64 1014.3
20260504183243 19 22 1.6 16.1 0.00 0.00 0.00 61 1014.4
20260504182741 20 312 6.4 11.3 0.00 0.00 0.00 56 1014.6
20260504182238 20 18 8.0 12.9 0.00 0.00 0.00 56 1014.1
20260504181735 20 61 1.6 11.3 0.00 0.00 0.00 54 1013.8
20260504181232 21 32 3.2 6.4 0.00 0.00 0.00 52 1013.7
20260504180731 22 58 1.6 11.3 0.00 0.00 0.00 52 1013.3
20260504180230 22 21 4.8 12.9 0.00 0.00 0.00 51 1013.4
20260504175727 22 25 1.6 6.4 0.00 0.00 0.00 54 1013.1
20260504175223 22 29 4.8 6.4 0.00 0.00 0.00 57 1013.1
20260504174722 22 1 9.7 12.9 0.00 0.00 0.00 52 1013.1
20260504174219 22 62 3.2 12.9 0.00 0.00 0.00 54 1013.2
20260504173715 21 64 1.6 11.3 0.00 0.00 0.00 53 1013.3
20260504173213 21 120 1.6 11.3 0.00 0.00 0.00 55 1013.3
20260504172709 20 340 6.4 11.3 0.00 0.00 0.00 57 1013.3
20260504172205 20 321 4.8 4.8 0.00 0.00 0.00 60 1013.6
20260504171702 19 66 3.2 4.8 0.00 0.00 0.00 63 1013.6
20260504171159 20 99 6.4 9.7 0.00 0.00 0.00 57 1013.4
20260504170655 20 151 4.8 6.4 0.00 0.00 0.00 58 1013.7
20260504170153 20 39 3.2 9.7 0.00 0.00 0.00 56 1013.7
20260504160112 18 41 9.7 12.9 0.00 0.00 0.00 67 1014.7
20260504151045 17 38 8.0 12.9 0.00 0.00 0.00 69 1015.7
20260504150542 17 89 6.4 11.3 0.00 0.00 0.00 68 1015.7
20260504141008 13 64 3.2 6.4 0.00 0.00 0.00 78 1016.2
20260504140505 12 67 3.2 6.4 0.00 0.00 0.00 81 1016.5
20260504130424 13 131 3.2 11.3 0.00 0.00 0.00 67 1015.9
20260504110311 7 90 1.6 3.2 0.00 0.00 0.00 86 1015.7
20260504100229 7 124 1.6 4.8 0.00 0.00 0.00 82 1015.6
20260504081622 7 101 1.6 1.6 0.00 0.00 0.00 79 1016.3
20260504081118 7 93 1.6 3.2 0.00 0.00 0.00 80 1016.2
20260504080615 7 94 1.6 3.2 0.00 0.00 0.00 79 1016.1
20260504080111 7 90 1.6 3.2 0.00 0.00 0.00 79 1016.3